Vorticity
9 8 7 5 5 5 5 4 5 5 5 5 5 4 5 5 4 4 4 2 3 4 4 4 6 5 4 6 8 8 21 19 10 20 4 6 25 26 32 17 13 17 8 12 14
7 6 4 4 5 5 6 7 6 5 5 6 4 3 4 4 4 6 3 5 4 4 7 5 6 6 6 6 7 11 29 18 10 23 7 8 37 19 32 26 13 7 10 3 46
8 8 9 7 6 4 4 5 5 6 5 4 5 4 4 5 5 4 6 7 7 6 8 6 8 7 7 6 4 5 23 23 9 10 11 12 40 14 39 24 11 9 -26 -24 -6
6 6 5 5 6 6 5 5 6 6 5 5 5 6 6 6 4 5 8 8 8 7 6 7 9 8 8 7 5 11 12 34 7 10 11 14 29 12 39 19 9 9 11 10 -15
7 7 6 5 4 4 4 5 4 5 5 6 7 5 6 9 10 9 7 8 7 7 5 6 8 8 7 6 5 9 10 26 16 16 8 13 13 21 28 16 13 9 14 -8 -1
5 6 5 5 5 6 5 5 5 5 4 4 5 6 8 6 7 6 7 7 6 2 4 6 7 6 8 6 8 6 11 14 20 12 17 6 17 2 35 17 14 6 10 4 -7
7 6 6 6 5 5 5 5 5 5 5 5 4 3 3 5 3 6 5 1 3 3 4 5 7 7 7 8 6 5 13 6 28 17 9 24 6 22 21 25 13 7 7 5 1
5 4 5 4 4 4 4 4 4 4 4 4 4 4 3 1 2 4 2 3 6 2 6 3 3 6 6 8 8 5 6 15 8 23 16 15 20 0 19 24 15 12 6 5 8
2 3 3 3 4 4 3 4 3 3 3 3 2 2 2 3 5 1 2 6 4 7 6 5 4 2 6 6 8 8 3 11 13 29 15 21 6 19 11 10 19 16 9 8 5
2 2 2 3 3 3 2 2 4 4 5 5 7 7 5 3 4 6 9 4 4 7 4 6 5 4 3 6 7 6 7 6 13 5 29 18 6 25 5 36 5 14 18 16 3
4 3 3 3 4 5 5 7 6 7 5 -1 -0 4 3 2 4 6 5 6 6 6 4 5 4 4 6 5 6 5 8 5 6 9 27 13 7 9 16 10 36 3 10 17 14
3 3 3 3 2 3 -0 2 5 1 2 6 9 20 27 20 17 11 5 10 6 2 4 5 1 5 5 5 3 4 4 6 7 6 18 24 15 0 14 18 27 24 5 6 15
4 3 5 2 1 1 10 14 11 11 14 4 25 13 14 18 19 17 13 4 5 9 12 14 9 7 7 5 4 4 3 6 8 6 10 13 50 9 -6 14 16 42 23 5 8
-0 3 3 2 21 15 12 20 16 15 15 9 30 21 1 8 9 7 9 9 9 11 11 11 11 8 7 5 5 6 4 5 5 8 6 7 34 23 12 -5 16 23 35 32 9
4 4 31 25 6 8 9 3 8 11 10 6 -3 4 1 -5 3 10 6 5 7 5 8 6 8 8 8 8 6 4 4 3 5 5 9 2 15 -1 4 12 7 19 33 30 31
-8 14 4 7 5 6 5 5 5 5 1 11 3 -1 10 3 2 6 5 7 8 7 6 3 5 7 8 6 7 6 6 2 3 5 4 6 8 31 21 11 14 7 23 22 23
24 12 7 3 7 6 5 4 2 7 7 9 4 5 4 6 7 8 6 6 7 10 6 4 4 5 6 5 5 7 3 4 4 4 5 8 2 4 26 16 11 12 4 20 24
2 3 4 5 5 5 6 6 3 8 6 7 8 7 7 10 8 6 6 5 8 7 6 3 5 4 5 4 4 5 5 7 4 5 4 7 11 2 5 11 33 15 9 8 9
7 7 6 6 7 8 12 9 10 9 7 8 7 4 8 7 5 11 9 10 7 9 9 12 6 7 8 8 8 4 4 3 5 5 6 4 6 -4 5 7 8 27 18 9 12
7 9 10 12 12 12 8 7 7 4 4 9 10 9 12 12 12 11 9 10 12 10 7 7 10 9 8 8 8 8 3 5 3 2 4 4 2 8 15 4 10 18 16 21 11
14 13 7 5 4 4 4 7 6 9 12 14 12 8 9 8 8 8 7 12 9 9 9 9 7 10 7 7 8 6 4 6 4 5 5 3 8 0 8 6 4 6 13 14 21
4 10 7 7 5 6 7 10 11 5 6 5 6 6 5 8 4 7 8 10 10 7 6 6 8 7 7 7 5 4 6 7 6 8 4 -1 6 2 10 7 1 8 12 9 9
2 2 2 8 7 11 9 7 5 7 7 11 6 8 12 11 8 8 6 8 9 8 6 8 5 10 9 8 8 7 4 8 9 7 4 3 14 9 2 13 9 4 5 8 11
9 5 9 7 6 5 5 6 11 13 13 15 17 16 15 12 20 4 9 10 8 6 8 9 3 3 7 9 7 8 3 4 4 4 7 5 5 3 2 -2 12 4 5 8 12
9 6 2 3 9 8 5 9 7 14 3 7 10 28 22 19 17 20 18 12 12 14 8 8 7 8 7 10 7 8 5 3 5 7 4 4 -1 11 6 9 1 14 8 3 -10
6 5 3 1 1 5 14 12 18 27 41 38 48 40 34 27 26 16 13 17 12 17 16 10 10 8 1 6 6 6 7 5 7 5 6 5 4 15 2 1 6 7 7 6 0
3 5 12 4 9 20 28 39 43 48 40 34 37 30 32 24 25 31 25 21 9 12 13 9 14 10 3 7 6 7 6 6 4 4 5 6 11 11 11 5 -3 7 14 9 14
Height
5809 5809 5809 5809 5809 5809 5809 5809 5808 5807 5806 5805 5803 5802 5800 5798 5795 5793 5790 5786 5782 5778 5773 5767 5762 5755 5748 5741 5731 5722 5713 5707 5702 5698 5697 5692 5691 5696 5701 5711 5724 5734 5744 5749 5764
5809 5808 5808 5808 5808 5807 5806 5805 5805 5804 5802 5800 5799 5797 5795 5793 5790 5787 5784 5780 5776 5772 5767 5761 5756 5750 5743 5737 5728 5718 5710 5702 5697 5694 5692 5688 5685 5688 5695 5706 5717 5725 5736 5744 5751
5809 5808 5807 5806 5806 5805 5804 5803 5801 5800 5798 5796 5795 5792 5790 5787 5785 5782 5778 5774 5771 5766 5761 5756 5750 5745 5738 5731 5724 5714 5707 5698 5693 5691 5688 5686 5684 5683 5691 5702 5710 5719 5729 5736 5742
5807 5806 5806 5804 5803 5802 5800 5799 5798 5796 5794 5792 5790 5787 5785 5783 5782 5777 5773 5769 5765 5761 5756 5751 5746 5740 5734 5727 5720 5712 5703 5696 5691 5688 5686 5685 5683 5683 5689 5699 5705 5714 5721 5730 5732
5806 5805 5804 5803 5802 5800 5798 5796 5795 5793 5791 5789 5786 5783 5781 5779 5776 5772 5768 5764 5761 5756 5751 5746 5741 5735 5729 5723 5716 5709 5701 5694 5689 5687 5686 5684 5683 5683 5686 5692 5698 5707 5713 5722 5725
5805 5804 5802 5801 5799 5797 5795 5793 5791 5789 5787 5784 5781 5778 5776 5774 5771 5767 5764 5760 5756 5752 5747 5741 5736 5731 5725 5719 5713 5707 5699 5693 5686 5685 5684 5683 5682 5683 5688 5688 5691 5699 5705 5712 5720
5803 5801 5799 5797 5795 5793 5791 5788 5786 5784 5782 5779 5777 5774 5772 5768 5766 5762 5758 5755 5751 5747 5742 5736 5732 5727 5721 5715 5710 5703 5697 5689 5684 5683 5681 5681 5682 5680 5681 5682 5687 5692 5697 5706 5712
5799 5797 5795 5793 5791 5789 5786 5784 5781 5779 5777 5774 5771 5768 5766 5763 5760 5757 5752 5749 5745 5741 5737 5732 5727 5722 5717 5712 5706 5701 5695 5688 5683 5679 5678 5678 5678 5678 5678 5681 5684 5687 5691 5700 5708
5795 5793 5791 5788 5786 5783 5780 5777 5775 5772 5769 5767 5765 5761 5760 5757 5753 5750 5745 5742 5739 5735 5731 5726 5722 5717 5714 5709 5704 5699 5692 5687 5681 5676 5673 5674 5675 5674 5674 5675 5679 5682 5686 5694 5702
5791 5788 5785 5782 5779 5776 5773 5770 5767 5765 5762 5758 5756 5754 5752 5748 5745 5741 5737 5734 5731 5728 5724 5721 5717 5712 5709 5705 5701 5695 5691 5684 5680 5675 5671 5669 5670 5669 5670 5670 5672 5674 5679 5688 5698
5785 5781 5778 5775 5772 5769 5765 5762 5760 5756 5755 5750 5746 5744 5741 5738 5736 5732 5729 5726 5723 5721 5718 5715 5712 5707 5703 5699 5696 5692 5687 5683 5676 5672 5669 5665 5665 5664 5664 5665 5667 5670 5673 5679 5691
5777 5774 5771 5766 5763 5758 5754 5750 5746 5741 5739 5742 5738 5733 5728 5726 5724 5720 5719 5718 5715 5713 5710 5709 5706 5701 5697 5693 5691 5686 5684 5679 5675 5670 5666 5661 5660 5658 5657 5659 5659 5661 5666 5672 5680
5768 5765 5762 5756 5751 5747 5742 5737 5733 5727 5721 5722 5727 5724 5720 5716 5713 5712 5709 5708 5706 5705 5701 5700 5697 5695 5691 5687 5685 5681 5678 5675 5673 5668 5661 5657 5655 5652 5650 5652 5653 5654 5656 5662 5673
5758 5752 5749 5746 5741 5735 5730 5725 5720 5716 5709 5712 5714 5714 5712 5708 5707 5703 5700 5701 5698 5696 5693 5692 5691 5686 5685 5682 5676 5677 5672 5670 5667 5664 5660 5654 5653 5646 5642 5646 5648 5647 5647 5653 5663
5747 5742 5738 5732 5730 5725 5721 5715 5710 5707 5700 5703 5704 5703 5701 5701 5698 5697 5694 5692 5690 5687 5687 5685 5681 5679 5678 5674 5670 5670 5667 5664 5662 5659 5657 5651 5649 5644 5637 5639 5643 5643 5644 5646 5652
5736 5730 5727 5722 5718 5714 5709 5705 5702 5699 5690 5694 5693 5691 5689 5687 5686 5685 5684 5683 5681 5679 5677 5677 5674 5671 5669 5667 5664 5661 5660 5657 5656 5654 5654 5649 5645 5639 5637 5636 5638 5640 5640 5640 5647
5723 5718 5714 5711 5706 5701 5696 5693 5690 5684 5684 5682 5679 5677 5675 5673 5672 5672 5672 5672 5670 5668 5668 5666 5665 5664 5661 5659 5656 5654 5652 5650 5647 5650 5649 5645 5642 5638 5635 5633 5633 5636 5638 5637 5641
5710 5706 5701 5697 5692 5688 5684 5680 5675 5674 5668 5663 5662 5661 5660 5659 5659 5658 5657 5658 5658 5655 5654 5654 5657 5655 5654 5652 5649 5647 5646 5645 5637 5639 5642 5642 5639 5633 5632 5632 5631 5631 5633 5634 5636
5697 5691 5687 5683 5677 5672 5668 5663 5662 5658 5653 5647 5645 5644 5646 5643 5640 5641 5641 5644 5643 5641 5639 5638 5640 5642 5643 5643 5643 5641 5640 5638 5632 5633 5631 5637 5636 5632 5629 5628 5628 5628 5630 5631 5632
5683 5676 5671 5666 5662 5656 5652 5650 5645 5639 5635 5630 5627 5628 5626 5625 5624 5624 5625 5629 5627 5626 5622 5624 5623 5627 5629 5631 5632 5632 5631 5629 5628 5624 5623 5629 5631 5626 5624 5623 5623 5622 5624 5628 5629
5670 5663 5658 5652 5646 5640 5635 5631 5628 5620 5618 5615 5610 5607 5609 5607 5607 5605 5608 5612 5610 5609 5605 5606 5606 5616 5614 5618 5619 5619 5620 5619 5619 5618 5616 5616 5625 5625 5619 5617 5616 5619 5619 5621 5624
5653 5644 5638 5631 5625 5618 5614 5609 5607 5601 5596 5590 5587 5587 5583 5583 5581 5585 5591 5593 5593 5590 5589 5590 5587 5596 5603 5602 5603 5604 5606 5608 5608 5611 5608 5606 5616 5617 5615 5612 5610 5610 5612 5613 5616
5637 5627 5620 5612 5605 5598 5592 5589 5582 5578 5575 5570 5561 5562 5559 5558 5553 5562 5568 5572 5571 5573 5574 5573 5567 5577 5586 5588 5588 5590 5595 5596 5598 5598 5597 5597 5606 5611 5609 5607 5604 5603 5603 5606 5609
5616 5608 5602 5592 5583 5573 5566 5564 5559 5552 5548 5540 5539 5536 5532 5531 5530 5527 5538 5545 5548 5550 5553 5548 5548 5560 5569 5573 5573 5576 5580 5580 5582 5584 5589 5587 5595 5603 5601 5599 5596 5594 5595 5600 5601
5595 5587 5580 5572 5560 5547 5535 5533 5524 5517 5515 5510 5509 5504 5497 5496 5500 5499 5504 5514 5525 5529 5530 5525 5524 5540 5548 5554 5555 5560 5565 5566 5567 5576 5571 5581 5579 5594 5593 5588 5586 5590 5589 5591 5594
5568 5560 5553 5545 5527 5510 5502 5498 5489 5485 5479 5482 5470 5474 5469 5464 5465 5469 5473 5485 5490 5506 5505 5507 5506 5516 5521 5537 5537 5538 5546 5551 5555 5561 5560 5566 5568 5581 5582 5578 5578 5581 5583 5584 5584
5539 5529 5519 5523 5502 5487 5480 5472 5467 5459 5459 5454 5448 5445 5446 5445 5440 5441 5446 5458 5461 5470 5483 5485 5488 5496 5497 5517 5513 5506 5538 5538 5543 5547 5549 5551 5559 5568 5569 5569 5568 5569 5572 5575 5576